Regional Weather Roundup
Issued by NWS

Home | Current Version | Previous Version | Text Only | Print | Product List | Glossary Off
Versions: 1 2 3 4 5 6 7 8 9 10 11 12 13 14 15 16 17 18 19 20 21 22 23 24 25 26 27

000
ASUS45 KBOI 230110
RWRID

IDAHO REGIONAL WEATHER ROUNDUP
NATIONAL WEATHER SERVICE BOISE ID
700 PM MDT TUE MAY 22 2018

NOTE: "FAIR" INDICATES FEW OR NO CLOUDS BELOW 12000 FEET
WITH NO SIGNIFICANT WEATHER AND/OR OBSTRUCTIONS TO VISIBILITY

IDZ012-014-230200-
SOUTHWEST IDAHO


CITY           SKY/WX    TMP DP  RH WIND       PRES   REMARKS
BOISE          FAIR      79  44  28 N12       29.77F
CALDWELL       FAIR      79  50  36 N12       29.77F
MOUNTAIN HOME  LGT RAIN  62  59  90 SW16G26   29.83R
$$

IDZ016-017-230200-
SOUTHCENTRAL IDAHO


CITY           SKY/WX    TMP DP  RH WIND       PRES   REMARKS
BURLEY         CLOUDY    65  49  56 CALM      29.88R
JEROME         LGT RAIN  59  48  67 W14       29.86F
TWIN FALLS     CLOUDY    59  50  72 W6        29.87F
$$

IDZ019>023-230200-
SOUTHEAST IDAHO


CITY           SKY/WX    TMP DP  RH WIND       PRES   REMARKS
IDAHO FALLS    PTSUNNY   67  44  43 SE16      29.90F
POCATELLO      PTSUNNY   70  44  39 SW14G22   29.89R
REXBURG        PTSUNNY   65  42  43 S10G23    29.89F
$$

IDZ006-010-011-018-031-032-230200-
CENTRAL IDAHO MOUNTAINS


CITY           SKY/WX    TMP DP  RH WIND       PRES   REMARKS
MCCALL         CLOUDY    55  51  86 NW7       29.94F
HAILEY         LGT RAIN  55  52  88 NE5       30.02R
STANLEY          N/A     57  44  62 SE14G23   30.00R
SALMON         PTSUNNY   67  49  52 N8        29.91F
CHALLIS        CLOUDY    66  46  48 W13       29.91S
$$

IDZ002-004-006-007-026-230200-
NORTHERN IDAHO


CITY           SKY/WX    TMP DP  RH WIND       PRES   REMARKS
LEWISTON       MOSUNNY   85  56  37 W8        29.75F
LOWELL           N/A     61  59  93 VRB6      29.87
COEUR D`ALENE  SUNNY     82  46  28 E9        29.82S
MULLAN PASS    SUNNY     62  36  37 VRB3      30.01F
$$




USA.gov is the U.S. government's official web portal to all federal, state and local government web resources and services.